Wind_Speed
28 26 25 26 25 23 23 21 20 19 21 21 22 18 16 17 15 15 14 13 13 12 12 12 12 13 13 14 14 15 15 16 16 17 17 18 19 20 21 22 23 24 25 25
29 28 27 26 22 22 21 19 19 20 21 22 23 21 19 19 18 16 15 14 15 14 13 13 14 14 15 15 16 17 17 18 18 19 19 20 21 22 23 24 25 26 27 27
28 28 29 27 21 20 19 17 19 21 21 24 24 23 22 20 18 15 17 17 16 16 15 15 15 16 17 17 18 18 19 20 21 22 22 23 23 24 25 26 27 28 29 29
29 30 32 26 22 20 20 22 22 23 24 26 26 24 22 20 20 18 18 18 18 17 17 18 18 18 18 19 19 19 21 22 23 24 24 25 26 27 28 29 30 30 31 32
28 27 27 25 24 24 23 23 25 26 25 26 26 25 23 21 21 19 18 20 20 19 19 19 19 20 20 20 21 22 23 24 25 26 26 27 27 28 29 31 31 33 34 34
30 29 26 24 26 27 25 26 26 26 25 25 26 25 24 21 21 20 19 20 20 21 21 20 20 21 22 23 23 24 25 26 28 29 29 29 29 30 31 31 32 33 34 34
29 30 29 27 27 28 27 26 26 25 25 24 25 26 24 23 21 21 21 21 22 23 23 23 23 23 24 24 25 26 27 27 28 29 30 30 31 31 33 33 33 33 34 36
27 28 29 27 25 26 24 23 24 23 24 24 24 24 25 24 22 22 23 23 23 24 24 25 25 26 25 25 26 27 28 30 31 31 32 32 32 33 34 35 35 36 37 37
26 26 28 28 27 25 24 23 21 23 24 24 25 25 25 25 24 25 25 25 25 25 26 26 27 27 28 28 29 30 31 31 32 33 34 34 34 34 35 36 38 38 39 39
26 27 27 27 27 27 27 26 22 23 24 26 26 26 26 26 26 26 26 26 27 27 28 28 28 29 30 31 32 32 32 33 33 34 35 36 35 35 37 38 38 39 40 41
26 25 25 24 22 23 23 22 24 24 24 25 25 26 27 27 27 27 27 28 28 29 30 30 30 31 31 32 33 34 35 35 36 36 37 37 37 37 38 39 40 41 42 44
18 20 22 22 21 20 22 22 23 24 25 25 27 27 27 28 28 28 28 29 29 29 30 30 31 32 33 35 36 36 37 37 37 38 39 38 38 38 38 39 41 42 43 45
18 18 18 19 19 19 20 21 22 24 25 25 26 26 25 26 26 27 28 29 30 30 30 31 32 33 34 35 37 38 38 38 38 38 39 38 39 40 41 41 43 44 45 47
19 18 18 19 19 19 20 21 21 21 22 23 23 23 23 24 25 25 26 27 28 30 31 32 33 33 33 35 36 38 38 39 39 39 40 40 41 42 42 43 44 46 47 48
18 18 19 18 19 20 21 20 20 21 22 22 23 23 23 23 24 24 25 26 27 28 30 31 32 33 34 34 35 36 37 38 39 40 40 41 42 43 44 45 46 48 49 50
17 17 17 18 18 19 19 19 20 21 21 22 22 22 24 24 25 26 26 27 28 30 30 31 31 33 34 35 35 36 37 38 39 40 41 42 43 44 46 48 49 51 51 52
16 16 16 17 18 18 18 19 19 20 22 23 24 24 26 27 27 27 27 28 29 30 31 32 33 34 34 35 36 37 39 40 41 42 43 44 45 47 48 49 51 52 52 52
16 17 16 17 18 18 18 19 21 22 21 22 23 25 26 27 27 28 29 30 31 32 33 33 34 35 36 37 38 39 41 42 43 44 45 46 47 48 49 50 51 51 50 49
16 16 16 17 18 19 20 21 22 23 23 24 25 25 26 27 28 29 30 32 33 33 34 35 36 37 37 38 39 41 42 43 44 45 46 47 47 48 48 48 48 48 48 48
17 17 18 18 18 19 20 21 22 24 24 24 25 26 28 29 30 31 32 33 34 35 36 37 38 39 40 40 41 43 43 44 45 46 47 47 47 47 47 47 46 47 47 47
17 18 18 18 19 20 21 23 24 25 26 27 28 29 30 31 32 33 34 35 35 36 37 39 39 40 41 42 43 44 44 45 46 46 46 46 46 46 46 46 46 46 45 45
18 19 20 21 21 22 23 24 25 27 27 28 29 30 32 33 35 36 37 37 37 38 39 40 41 42 43 44 45 45 45 45 46 45 45 45 44 45 45 45 44 44 44 43
20 21 22 23 23 25 26 28 29 29 30 31 32 33 34 35 36 37 37 38 39 39 40 41 42 43 44 44 44 45 44 44 44 44 43 43 43 43 43 42 42 42 42 41
21 22 23 24 26 27 28 29 30 31 32 33 34 35 36 36 37 38 39 39 40 41 42 42 42 43 43 43 43 43 42 42 42 41 41 42 42 41 40 39 38 39 39 38
24 25 25 26 28 29 30 31 32 33 34 35 35 35 36 36 37 38 38 39 40 41 41 41 42 42 41 40 40 39 39 38 38 39 38 38 37 37 36 36 36 36 36 35
25 26 27 29 30 31 32 32 33 34 35 35 35 35 36 37 37 38 38 39 39 39 39 39 39 39 38 37 36 36 36 36 35 34 33 32 32 31 31 31 31 31 31 30
27 27 28 29 30 31 31 32 32 33 33 34 34 35 36 36 37 37 37 37 37 37 37 36 36 35 34 34 34 34 33 33 32 30 30 29 28 27 26 26 26 26 26 25
Wind_Direction
236 242 249 247 246 244 244 247 252 254 263 269 273 272 273 279 277 270 266 264 261 258 255 253 251 251 251 250 249 250 251 252 254 256 259 262 265 268 272 275 278 281 283 284
237 240 249 259 258 252 248 246 251 252 259 264 270 271 273 277 276 270 268 266 260 255 254 254 254 254 254 255 255 256 257 258 260 262 264 266 269 272 275 277 279 281 283 285
237 240 245 251 255 253 248 247 250 253 256 257 262 265 271 276 274 269 269 266 260 257 256 258 258 257 256 258 259 261 262 264 266 267 268 269 271 273 276 278 280 282 284 285
239 240 245 245 245 245 244 244 246 247 249 255 259 263 268 270 270 267 267 265 261 259 258 258 258 260 263 263 263 265 267 268 270 271 271 272 274 276 278 279 281 282 283 284
241 241 244 242 242 242 241 245 244 248 251 255 259 262 261 263 266 265 263 260 259 262 260 260 261 262 265 267 267 269 271 272 273 273 274 275 276 278 280 281 282 283 284 284
245 246 245 242 244 246 245 248 245 247 250 255 257 259 262 262 260 264 264 262 261 264 262 262 262 264 267 269 270 272 271 274 275 275 277 277 279 281 282 283 284 284 284 284
245 245 245 244 245 245 243 245 249 252 251 252 256 260 263 264 260 264 264 264 263 264 263 264 264 266 268 271 272 272 273 276 276 276 278 280 279 281 281 283 283 286 287 287
241 242 242 242 243 243 243 245 245 247 252 254 259 261 261 264 263 263 264 264 263 263 264 265 267 267 268 272 275 277 278 278 278 280 281 281 281 282 282 282 284 286 287 287
241 245 247 246 248 246 246 251 248 248 254 258 260 261 264 267 267 266 266 265 264 263 263 264 267 269 271 274 276 277 278 279 280 282 282 283 282 282 284 285 286 286 286 287
243 247 249 250 251 252 249 249 249 253 255 257 259 261 264 267 268 266 264 264 264 265 265 266 268 270 271 274 277 280 281 282 282 282 282 283 282 283 284 285 286 286 286 286
247 248 250 252 252 253 252 249 251 254 257 259 262 264 266 268 269 267 265 264 263 264 266 267 269 270 272 273 275 278 280 282 282 283 282 283 283 283 284 284 285 285 285 285
252 252 254 256 258 258 255 255 252 255 258 260 262 264 265 266 269 269 269 267 265 267 269 270 271 271 273 274 276 279 281 283 283 283 284 285 283 284 285 286 285 285 285 286
256 257 261 264 263 262 258 256 256 257 259 259 261 264 266 267 268 270 270 269 268 269 271 272 273 273 275 276 277 278 280 282 284 285 285 284 284 285 286 286 286 286 287 288
261 263 264 264 261 260 259 259 259 261 262 263 263 265 267 270 271 271 272 271 272 272 273 274 275 276 278 279 280 280 282 284 284 285 286 285 285 285 286 286 287 288 288 289
262 262 262 262 264 265 264 262 263 268 268 268 268 269 270 273 274 273 275 276 277 278 279 279 278 278 279 281 282 283 283 283 284 285 285 286 287 287 288 289 291 291 291 291
260 261 264 265 265 266 266 267 269 271 272 272 273 275 274 275 277 278 280 280 279 280 280 282 282 282 282 285 287 287 287 288 289 289 290 290 291 291 292 292 292 293 293 293
263 266 267 269 269 269 270 270 270 271 272 274 276 277 277 279 280 279 278 279 280 281 282 283 284 285 287 287 288 289 289 290 290 290 291 292 292 293 293 293 294 294 294 294
264 267 268 271 270 271 274 274 274 275 276 277 279 279 278 278 280 281 282 283 283 284 285 286 286 288 288 289 289 290 290 291 291 291 291 292 293 294 294 294 294 294 294 294
267 269 272 274 273 273 276 278 279 280 281 281 281 281 281 283 285 287 288 288 289 290 289 290 290 291 291 292 291 291 290 291 291 292 292 293 293 294 294 294 294 293 293 294
268 269 271 274 275 276 279 281 282 282 283 284 285 286 286 287 288 290 292 292 292 293 293 293 293 293 294 294 294 294 293 293 293 293 294 294 294 294 295 295 295 295 295 296
270 272 275 277 279 280 282 283 283 284 284 285 287 288 288 288 289 292 293 293 294 294 294 294 294 295 295 295 295 294 294 294 294 294 294 293 294 295 296 296 297 298 298 298
272 274 276 278 278 280 282 283 286 288 288 288 289 290 292 292 292 292 293 293 294 294 294 294 295 295 295 295 294 295 295 295 295 295 295 294 295 295 296 297 297 298 298 298
271 274 278 281 281 282 284 285 287 289 290 291 292 292 293 293 294 294 295 295 295 296 296 296 296 295 295 294 295 295 296 296 296 296 295 296 296 297 297 297 297 298 298 299
278 281 282 284 285 285 286 287 289 290 291 292 293 293 294 294 295 296 296 297 297 297 297 296 295 295 295 295 295 296 296 296 296 296 296 296 296 297 297 297 297 297 298 299
280 281 282 284 285 287 289 291 292 293 294 295 295 296 296 297 297 298 298 298 298 297 296 296 295 295 295 295 295 296 296 297 297 297 297 296 296 296 297 297 298 298 299 300
280 283 286 286 288 290 291 292 293 294 296 297 297 298 298 298 299 299 300 299 298 298 297 297 296 296 296 296 296 297 298 298 299 299 300 299 299 299 300 302 303 303 304 304
283 285 286 288 290 292 293 293 294 295 296 297 297 298 299 299 299 300 300 300 300 299 298 298 298 298 298 297 297 298 299 300 300 301 301 300 301 303 304 305 307 307 308 309
Height
5816 5818 5819 5820 5821 5823 5824 5826 5828 5830 5829 5826 5825 5825 5826 5827 5828 5829 5830 5831 5832 5833 5834 5835 5836 5838 5839 5840 5841 5842 5844 5845 5846 5847 5848 5849 5849 5850 5850 5850 5850 5850 5849 5849
5809 5812 5812 5812 5813 5816 5818 5820 5822 5824 5825 5823 5822 5821 5822 5823 5824 5825 5825 5827 5829 5830 5831 5832 5833 5834 5835 5836 5837 5839 5840 5841 5841 5842 5843 5843 5844 5844 5844 5844 5844 5844 5843 5842
5803 5806 5806 5807 5809 5811 5812 5814 5818 5819 5820 5819 5818 5818 5819 5820 5820 5821 5822 5824 5825 5826 5827 5828 5830 5831 5831 5832 5833 5834 5835 5835 5836 5837 5837 5837 5838 5838 5838 5837 5837 5836 5835 5835
5796 5800 5800 5804 5803 5803 5806 5809 5811 5812 5813 5813 5814 5813 5814 5816 5817 5818 5818 5820 5821 5822 5823 5824 5825 5826 5827 5827 5828 5829 5829 5830 5830 5830 5831 5831 5831 5831 5831 5830 5829 5829 5828 5826
5789 5791 5793 5797 5798 5800 5801 5802 5804 5805 5807 5807 5808 5808 5809 5811 5812 5812 5814 5815 5816 5817 5818 5819 5820 5821 5822 5822 5822 5823 5823 5824 5824 5824 5824 5824 5823 5823 5822 5822 5821 5820 5819 5818
5782 5784 5787 5790 5791 5792 5794 5794 5796 5798 5800 5801 5802 5802 5803 5804 5806 5807 5809 5810 5811 5812 5812 5814 5815 5816 5816 5817 5817 5817 5816 5816 5817 5816 5816 5815 5815 5815 5814 5813 5812 5810 5809 5808
5776 5778 5781 5782 5783 5786 5788 5790 5790 5791 5793 5794 5796 5797 5798 5798 5800 5802 5803 5805 5806 5807 5807 5808 5808 5809 5809 5810 5810 5810 5810 5810 5809 5808 5807 5807 5806 5806 5805 5804 5802 5801 5800 5799
5770 5773 5776 5774 5776 5778 5780 5780 5781 5783 5785 5787 5790 5791 5792 5793 5793 5795 5797 5799 5799 5801 5801 5802 5802 5802 5802 5803 5802 5801 5802 5802 5801 5800 5799 5798 5797 5797 5795 5793 5792 5791 5790 5789
5764 5767 5767 5768 5769 5770 5772 5773 5774 5778 5780 5782 5784 5785 5787 5788 5789 5790 5791 5792 5793 5793 5794 5795 5796 5795 5795 5795 5794 5794 5793 5793 5793 5792 5790 5789 5789 5787 5786 5784 5782 5781 5780 5778
5757 5759 5761 5763 5763 5765 5766 5767 5769 5772 5775 5777 5778 5779 5780 5781 5782 5783 5784 5785 5785 5786 5786 5788 5788 5788 5788 5788 5787 5786 5785 5784 5783 5782 5781 5779 5778 5777 5776 5774 5772 5771 5769 5767
5751 5753 5755 5756 5757 5758 5759 5761 5763 5766 5768 5770 5771 5772 5773 5774 5775 5775 5776 5778 5778 5779 5779 5780 5780 5780 5780 5779 5779 5778 5777 5775 5774 5773 5771 5770 5768 5767 5765 5764 5762 5760 5757 5755
5747 5748 5750 5750 5751 5753 5756 5758 5758 5759 5762 5764 5765 5766 5766 5767 5768 5768 5769 5769 5770 5770 5771 5771 5771 5771 5771 5770 5769 5768 5767 5765 5764 5763 5761 5759 5757 5755 5754 5752 5750 5747 5745 5742
5743 5744 5744 5746 5748 5749 5751 5752 5753 5754 5755 5757 5758 5759 5759 5760 5760 5761 5761 5761 5761 5762 5762 5762 5762 5761 5761 5760 5759 5758 5757 5755 5754 5752 5750 5748 5746 5744 5742 5740 5737 5734 5732 5728
5739 5740 5741 5742 5743 5744 5745 5746 5747 5748 5749 5750 5751 5752 5752 5753 5753 5753 5753 5753 5753 5753 5753 5753 5753 5752 5751 5750 5749 5748 5746 5744 5743 5741 5739 5736 5734 5732 5729 5726 5723 5720 5718 5714
5734 5736 5737 5738 5738 5739 5740 5741 5741 5742 5743 5744 5745 5745 5746 5746 5746 5746 5746 5746 5746 5745 5745 5744 5744 5742 5741 5740 5738 5737 5735 5733 5732 5730 5727 5725 5722 5719 5716 5713 5710 5707 5703 5700
5730 5732 5733 5733 5734 5735 5735 5736 5736 5737 5737 5738 5738 5739 5739 5739 5739 5739 5739 5738 5738 5737 5736 5735 5734 5733 5731 5730 5728 5726 5724 5722 5720 5718 5715 5712 5709 5706 5703 5699 5696 5692 5688 5684
5726 5727 5728 5729 5729 5730 5730 5730 5731 5731 5731 5732 5732 5732 5732 5732 5731 5731 5731 5730 5729 5728 5727 5726 5724 5723 5721 5719 5717 5715 5713 5711 5708 5705 5702 5699 5696 5692 5689 5685 5681 5677 5672 5667
5722 5723 5723 5724 5725 5725 5725 5726 5726 5725 5725 5725 5725 5725 5725 5724 5723 5723 5722 5721 5720 5719 5718 5716 5714 5712 5710 5708 5706 5703 5701 5698 5695 5692 5689 5685 5682 5678 5674 5670 5665 5661 5657 5652
5718 5718 5719 5719 5719 5720 5720 5720 5720 5719 5719 5719 5718 5718 5717 5716 5715 5714 5713 5712 5710 5709 5707 5705 5703 5701 5699 5696 5694 5691 5688 5685 5681 5678 5675 5671 5667 5663 5659 5655 5650 5646 5642 5637
5713 5713 5714 5714 5714 5714 5714 5713 5713 5713 5712 5711 5711 5709 5709 5707 5706 5705 5703 5702 5700 5698 5696 5693 5691 5689 5686 5684 5681 5678 5675 5671 5668 5664 5660 5657 5653 5649 5644 5640 5636 5631 5627 5623
5708 5708 5708 5708 5708 5708 5708 5707 5706 5706 5705 5704 5703 5702 5700 5699 5697 5695 5694 5692 5690 5687 5685 5682 5680 5677 5674 5671 5667 5664 5661 5658 5654 5650 5646 5642 5639 5635 5631 5626 5622 5618 5613 5609
5702 5702 5702 5702 5702 5701 5701 5700 5699 5698 5697 5696 5695 5693 5691 5689 5687 5685 5683 5681 5679 5676 5673 5670 5667 5664 5661 5657 5654 5651 5647 5644 5640 5636 5633 5629 5625 5621 5617 5613 5609 5605 5600 5596
5696 5696 5696 5695 5695 5694 5693 5692 5691 5690 5689 5687 5686 5684 5682 5680 5677 5675 5672 5670 5667 5664 5661 5658 5654 5651 5648 5644 5641 5637 5634 5630 5626 5623 5619 5615 5612 5608 5604 5600 5596 5592 5588 5584
5690 5689 5689 5688 5687 5686 5685 5684 5683 5681 5680 5678 5676 5674 5671 5669 5666 5664 5661 5658 5655 5652 5648 5645 5641 5638 5635 5631 5628 5624 5620 5617 5613 5610 5606 5603 5599 5595 5591 5587 5584 5580 5576 5572
5683 5682 5682 5681 5680 5678 5677 5676 5674 5672 5670 5668 5665 5663 5660 5658 5655 5652 5649 5646 5642 5639 5635 5632 5629 5625 5622 5619 5615 5612 5608 5605 5602 5598 5594 5591 5587 5583 5580 5576 5573 5569 5566 5562
5676 5675 5674 5673 5671 5670 5668 5666 5664 5662 5660 5657 5655 5652 5649 5646 5644 5641 5638 5634 5631 5627 5623 5620 5616 5613 5610 5607 5604 5601 5597 5594 5591 5587 5583 5580 5576 5573 5570 5566 5563 5560 5556 5552
5668 5667 5666 5665 5663 5661 5659 5657 5655 5652 5650 5647 5645 5642 5639 5636 5633 5629 5626 5623 5619 5615 5612 5608 5605 5602 5599 5596 5593 5590 5587 5584 5581 5578 5574 5571 5568 5565 5562 5559 5556 5552 5549 5545